Weather History for KERI - February, 2014

Change the Weather History Date:

Monday, February 10, 2014

  Actual Average Record
Temperature  
Mean Temperature 11 °F 28 °F  
Max Temperature 18 °F 35 °F 62 °F (1932)
Min Temperature 3 °F 21 °F -12 °F (1899)
Degree Days  
Heating Degree Days 54 37  
Month to date heating degree days 469 379  
Since 1 July heating degree days 4050 3717  
Cooling Degree Days 0 0  
Month to date cooling degree days 0 0  
Year to date cooling degree days 0 0  
Moisture  
Dew Point 9 °F    
Average Humidity 78    
Maximum Humidity 88    
Minimum Humidity 67    
Precipitation  
Precipitation 0.05 in 0.09 in 0.72 in (1959)
Month to date precipitation 1.87 0.83  
Year to date precipitation 4.43 3.78  
Snow  
Snow 1.00 in 0.60 in - ()
Month to date snowfall 16.8 7.1  
Since 1 July snowfall 108.5 72.9  
Snow Depth 9.00 in    
Sea Level Pressure  
Sea Level Pressure 30.25 in    
Wind  
Wind Speed 7 mph (WSW)    
Max Wind Speed 15 mph    
Max Gust Speed 21 mph    
Visibility 4 miles    
Events Snow    
T = Trace of Precipitation, MM = Missing Value Source: NWS Daily Summary

Daily Weather History Graph

Daily Weather History Graph

Search for Another Location

Airport or City:

Trip Planner

Search our weather history database for the weather conditions in past years. The results will help you decide how hot, cold, wet, or windy it might be!

Date:

Astronomy

Feb. 10, 2014 Rise Set
Actual Time 7:23 AM EST 5:47 PM EST
Civil Twilight 6:54 AM EST 6:16 PM EST
Nautical Twilight 6:21 AM EST 6:49 PM EST
Astronomical Twilight 5:48 AM EST 7:21 PM EST
Moon 2:13 PM EST (2/10) 4:17 AM EST (2/10)
Length of Visible Light 11h 21m
Length of Day
10h 23m
Waxing Gibbous, 84% of the Moon is Illuminated
Feb 10
Waxing Gibbous
Feb 14
Full
Feb 22
Last Quarter
Mar 1
New
Mar 8
First Quarter

Hourly Weather History & Observations

Time (EST) Temp. Windchill Dew Point Humidity Pressure Visibility Wind Dir Wind Speed Gust Speed Precip Events Conditions
12:51 AM 3.9 °F -5.3 °F -0.0 °F 84% 30.19 in 6.0 mi South 4.6 mph - N/A   Clear
1:51 AM 8.1 °F - 3.9 °F 83% 30.18 in 6.0 mi Calm Calm - N/A   Overcast
2:51 AM 10.0 °F 3.6 °F 6.1 °F 84% 30.18 in 3.0 mi South 3.5 mph - 0.00 in Snow Light Snow
3:04 AM 10.4 °F 4.0 °F 6.8 °F 85% 30.14 in 2.5 mi South 3.5 mph - 0.00 in Snow Light Snow
3:11 AM 10.4 °F 4.0 °F 8.6 °F 92% 30.14 in 2.5 mi South 3.5 mph - 0.00 in Snow Light Snow
3:24 AM 12.2 °F 4.3 °F 6.8 °F 79% 30.15 in 3.0 mi South 4.6 mph - 0.00 in Snow Light Snow
3:51 AM 10.9 °F 2.9 °F 7.0 °F 84% 30.19 in 5.0 mi South 4.6 mph - 0.00 in   Overcast
4:51 AM 10.0 °F 1.8 °F 7.0 °F 87% 30.19 in 6.0 mi SSW 4.6 mph - N/A   Overcast
5:34 AM 10.4 °F - 6.8 °F 85% 30.15 in 4.0 mi Calm Calm - N/A   Overcast
5:43 AM 10.4 °F 4.0 °F 6.8 °F 85% 30.15 in 4.0 mi SSW 3.5 mph - N/A   Overcast
5:51 AM 12.9 °F 5.2 °F 9.0 °F 84% 30.19 in 3.0 mi WSW 4.6 mph - 0.00 in Snow Light Snow
6:06 AM 15.8 °F 7.2 °F 10.4 °F 79% 30.15 in 5.0 mi WSW 5.8 mph - 0.00 in   Overcast
6:32 AM 15.8 °F 6.1 °F 12.2 °F 86% 30.15 in 7.0 mi WSW 6.9 mph - 0.00 in   Overcast
6:51 AM 16.0 °F 6.3 °F 12.9 °F 88% 30.20 in 4.0 mi WSW 6.9 mph - 0.00 in Snow Light Snow
7:51 AM 16.0 °F 5.3 °F 12.9 °F 88% 30.23 in 3.0 mi West 8.1 mph - 0.00 in Snow Light Snow
8:18 AM 15.8 °F 5.1 °F 12.2 °F 86% 30.20 in 2.5 mi WSW 8.1 mph - 0.00 in Snow Light Snow
8:37 AM 15.8 °F 3.4 °F 12.2 °F 86% 30.21 in 1.2 mi West 10.4 mph 19.6 mph 0.00 in Snow Light Snow
8:51 AM 16.0 °F 2.3 °F 12.0 °F 84% 30.26 in 1.0 mi West 12.7 mph 18.4 mph 0.00 in Snow Light Snow
9:08 AM 15.8 °F 3.4 °F 12.2 °F 86% 30.21 in 0.8 mi West 10.4 mph - 0.00 in Snow Light Snow
9:14 AM 15.8 °F 3.4 °F 12.2 °F 86% 30.21 in 1.0 mi West 10.4 mph - 0.00 in Snow Light Snow
9:35 AM 15.8 °F 3.4 °F 12.2 °F 86% 30.22 in 0.8 mi West 10.4 mph 17.3 mph 0.00 in Snow Light Snow
9:51 AM 16.0 °F 3.6 °F 10.9 °F 81% 30.27 in 0.8 mi West 10.4 mph 18.4 mph 0.00 in Snow Light Snow
10:02 AM 15.8 °F 3.4 °F 10.4 °F 79% 30.23 in 1.2 mi West 10.4 mph - 0.01 in Snow Light Snow
10:12 AM 15.8 °F 4.2 °F 10.4 °F 79% 30.23 in 0.8 mi West 9.2 mph - 0.02 in Snow Light Snow
10:19 AM 15.8 °F 3.4 °F 10.4 °F 79% 30.24 in 1.5 mi West 10.4 mph 16.1 mph 0.04 in Snow Light Snow
10:28 AM 15.8 °F 4.2 °F 10.4 °F 79% 30.24 in 1.5 mi West 9.2 mph - 0.04 in Snow Light Snow
10:40 AM 17.6 °F 6.4 °F 10.4 °F 73% 30.24 in 1.0 mi WSW 9.2 mph - 0.04 in Snow Light Snow
10:51 AM 17.1 °F 5.8 °F 10.9 °F 77% 30.30 in 2.0 mi West 9.2 mph - 0.04 in Snow Light Snow
11:00 AM 15.8 °F 1.4 °F 10.4 °F 79% 30.25 in 1.8 mi WNW 13.8 mph 20.7 mph 0.00 in Snow Light Snow
11:24 AM 15.8 °F 4.2 °F 10.4 °F 79% 30.25 in 1.2 mi West 9.2 mph 17.3 mph 0.00 in Snow Light Snow
11:31 AM 15.8 °F 3.4 °F 10.4 °F 79% 30.25 in 1.5 mi West 10.4 mph - 0.00 in Snow Light Snow
11:48 AM 15.8 °F 4.2 °F 10.4 °F 79% 30.25 in 2.5 mi WNW 9.2 mph - 0.00 in Snow Light Snow
11:51 AM 15.1 °F 2.5 °F 10.0 °F 80% 30.30 in 2.5 mi WNW 10.4 mph - 0.00 in Snow Light Snow
12:12 PM 15.8 °F 5.1 °F 10.4 °F 79% 30.25 in 3.0 mi WNW 8.1 mph - 0.00 in   Haze
12:39 PM 15.8 °F 4.2 °F 10.4 °F 79% 30.25 in 4.0 mi West 9.2 mph - 0.00 in   Haze
12:51 PM 16.0 °F 6.3 °F 10.0 °F 77% 30.30 in 2.5 mi West 6.9 mph - 0.00 in Snow Light Snow
1:02 PM 15.8 °F 4.2 °F 10.4 °F 79% 30.25 in 3.0 mi West 9.2 mph - 0.00 in Snow Light Snow
1:51 PM 17.1 °F 7.6 °F 10.0 °F 74% 30.27 in 8.0 mi WSW 6.9 mph - 0.00 in   Overcast
2:51 PM 17.1 °F 6.6 °F 8.1 °F 68% 30.28 in 10.0 mi West 8.1 mph - N/A   Overcast
3:15 PM 17.6 °F 10.7 °F 8.6 °F 68% 30.24 in 10.0 mi West 4.6 mph - N/A   Mostly Cloudy
3:22 PM 17.6 °F 5.7 °F 6.8 °F 63% 30.24 in 10.0 mi West 10.4 mph - N/A   Mostly Cloudy
3:51 PM 17.1 °F 8.7 °F 8.1 °F 68% 30.30 in 10.0 mi West 5.8 mph - N/A   Clear
4:51 PM 15.1 °F 3.3 °F 7.0 °F 70% 30.31 in 10.0 mi West 9.2 mph - N/A   Clear
5:51 PM 12.9 °F 3.8 °F 7.0 °F 77% 30.33 in 10.0 mi West 5.8 mph - N/A   Clear
6:51 PM 12.9 °F 3.8 °F 8.1 °F 81% 30.34 in 8.0 mi WSW 5.8 mph - N/A   Overcast
7:51 PM 12.9 °F 3.8 °F 8.1 °F 81% 30.35 in 8.0 mi WSW 5.8 mph - N/A   Overcast
8:51 PM 14.0 °F 5.1 °F 9.0 °F 80% 30.36 in 6.0 mi WSW 5.8 mph - N/A   Haze
9:08 PM 14.0 °F 6.5 °F 8.6 °F 79% 30.32 in 3.0 mi WSW 4.6 mph - 0.00 in Snow Light Snow
9:20 PM 14.0 °F 3.9 °F 8.6 °F 79% 30.32 in 2.0 mi WSW 6.9 mph - 0.00 in Snow Light Snow
9:27 PM 14.0 °F 3.9 °F 10.4 °F 86% 30.32 in 1.2 mi West 6.9 mph - 0.01 in Snow Light Snow
9:38 PM 14.0 °F 2.9 °F 10.4 °F 86% 30.32 in 3.0 mi WSW 8.1 mph - 0.01 in Snow Light Snow
9:51 PM 14.0 °F 2.9 °F 9.0 °F 80% 30.37 in 4.0 mi WSW 8.1 mph - 0.01 in Snow Light Snow
10:51 PM 14.0 °F 8.2 °F 8.1 °F 77% 30.37 in 5.0 mi WSW 3.5 mph - 0.00 in   Haze
11:11 PM 14.0 °F 6.5 °F 8.6 °F 79% 30.33 in 6.0 mi WSW 4.6 mph - N/A   Haze
11:38 PM 14.0 °F 5.1 °F 8.6 °F 79% 30.33 in 3.0 mi WSW 5.8 mph - 0.00 in Snow Light Snow
11:43 PM 14.0 °F 6.5 °F 8.6 °F 79% 30.33 in 2.5 mi West 4.6 mph - 0.00 in Snow Light Snow
11:51 PM 12.9 °F 3.8 °F 8.1 °F 81% 30.38 in 3.0 mi WSW 5.8 mph - 0.00 in Snow Light Snow